Terug naar catalogus

STARLINK-38299

ActiefCommunicatieSSO
NORAD 100316·PAYLOAD·🇺🇸 United States

Gelanceerd Aug 12, 2026 vanaf Vandenberg Space Force Base

Loading…

Volgende Passages (komende 24 uur)

TLE

VersSource: Space-Track

Epoch: Sep 14, 2026, 21:41 UTC

1 A0316U 26184R   26257.90388850  .00017170  00000-0  53311-3 0  9996
2 A0316  97.2839 123.1172 0001383 106.6423 253.4972 15.33436396  6500

Volg STARLINK-38299 in realtime met AllMySat

Download on the App Store